Location: Altamira
(10.5079°N, 66.8544°W)
Time: 17:58:38
(UTC+00:00)

Yuri Rocket - Pass Details

Date: 13 December 2025
Orbit: 567 x 1899 km, 28.2° (Epoch: 14 January)

Event Time Altitude Azimuth Distance (km) Brightness Sun altitude
Rises 23:07:13 0° 297° (WNW) 4,868 8.3 -14.4°
Reaches altitude 10° 23:10:49 10° 297° (WNW) 3,702 7.6 -15.3°
Maximum altitude 23:20:11 85° 209° (SSW) 1,202 4.4 -17.4°
Enters shadow 23:26:18 13° 121° (ESE) 2,503 5.8 -18.8°
